This is the latest recevied weather packets stored in our database for station/object KF0PEC-15. If no packets are shown the sender has not sent any weather packets the latest 10 day(s).
| Time | Temp. | Humidity | Pressure | Rain* | Wind** | Luminosity | Snow |
|---|---|---|---|---|---|---|---|
| 1777423595 | 12.22° C | 47% | 1016.4 hPa | 0 mm | - | 207 W/m² | - |
| 1777423050 | 12.22° C | 47% | 1016 hPa | 0 mm | - | 487 W/m² | - |
| 1777422570 | 12.22° C | 47% | 1016 hPa | 0 mm | - | 493 W/m² | - |
| 1777421990 | 12.22° C | 48% | 1015.6 hPa | 0 mm | - | 618 W/m² | - |
| 1777421420 | 12.78° C | 47% | 1015.2 hPa | 0 mm | - | 933 W/m² | - |
| 1777420915 | 12.22° C | 48% | 1015.4 hPa | 0 mm | - | 111 W/m² | - |
| 1777420350 | 12.78° C | 47% | 1015 hPa | 0 mm | - | 101 W/m² | - |
| 1777419766 | 12.22° C | 48% | 1015.2 hPa | 0 mm | - | 106 W/m² | - |
| 1777419205 | 12.22° C | 49% | 1014.9 hPa | 0 mm | - | 101 W/m² | - |
| 1777418711 | 12.22° C | 49% | 1014.7 hPa | 0 mm | - | 863 W/m² | - |
| 1777418120 | 12.78° C | 48% | 1014.5 hPa | 0 mm | - | 711 W/m² | - |
| 1777417605 | 12.78° C | 49% | 1014.3 hPa | 0 mm | - | 885 W/m² | - |
| 1777417030 | 12.78° C | 50% | 1014.1 hPa | 0 mm | - | 128 W/m² | - |
| 1777416510 | 12.78° C | 50% | 1014 hPa | 0 mm | - | 113 W/m² | - |
| 1777415985 | 12.78° C | 50% | 1014.1 hPa | 0 mm | - | 119 W/m² | - |
| 1777415500 | 12.78° C | 50% | 1014.1 hPa | 0 mm | - | 109 W/m² | - |
| 1777414930 | 12.78° C | 49% | 1013.9 hPa | 0 mm | - | 171 W/m² | - |
| 1777414395 | 12.78° C | 49% | 1013.7 hPa | 0 mm | - | 169 W/m² | - |
| 1777413845 | 12.78° C | 49% | 1014.1 hPa | 0 mm | - | 179 W/m² | - |
| 1777413355 | 12.78° C | 49% | 1013.9 hPa | 0 mm | - | 170 W/m² | - |
| 1777412800 | 12.78° C | 48% | 1014.1 hPa | 0 mm | - | 176 W/m² | - |
| 1777412230 | 13.33° C | 47% | 1013.4 hPa | 0 mm | - | 155 W/m² | - |
| 1777411746 | 14.44° C | 44% | 1012.5 hPa | 0 mm | - | 232 W/m² | - |
| 1777411200 | 14.44° C | 41% | 1012.3 hPa | 0 mm | - | 252 W/m² | - |
| 1777410715 | 14.44° C | 40% | 1012.2 hPa | 0 mm | - | 233 W/m² | - |
* Rain latest hour (hover to see other rain measurements)
** Current wind speed in m/s (hover to see current wind gust speed)